Location: *
(35.2348°S, 91.3916°E)
Time: 10:42:20
(UTC+00:00)

Cosmos 2123 Rocket - Pass Details

Date: 23 October 2019
Orbit: 960 x 993 km, 82.9° (Epoch: 20 November)

Event Time Altitude Azimuth Distance (km) Brightness Sun altitude
Rises 12:44:52 0° 189° (S) 3,733 7.5 -6.5°
Reaches altitude 10° 12:47:25 10° 189° (S) 2,781 6.8 -7.0°
Maximum altitude 12:53:48 78° 274° (W) 1,027 4.3 -8.2°
Drops below altitude 10° 13:00:08 10° 359° (N) 2,752 6.2 -9.4°
Sets 13:02:38 0° 0° (N) 3,692 6.8 -9.9°
